| time (UTC) | temp F | wind direction | speed MPH | gust MPH | rain 1hr in | rain 24hr in | rain mn in | humidity % | barometer mb |
| 20260505080104 | 49 | 193 | 0.0 | 1.0 | 0.00 | 0.00 | 0.00 | 50 | 100.8 |
| 20260505075104 | 49 | 195 | 1.0 | 2.0 | 0.00 | 0.00 | 0.00 | 49 | 100.8 |
| 20260505074104 | 49 | 207 | 1.0 | 1.0 | 0.00 | 0.00 | 0.00 | 50 | 100.7 |
| 20260505073104 | 49 | 200 | 1.0 | 1.0 | 0.00 | 0.00 | 0.00 | 49 | 100.7 |
| 20260505072104 | 50 | 186 | 1.0 | 2.0 | 0.00 | 0.00 | 0.00 | 49 | 100.6 |
| 20260505071104 | 50 | 164 | 1.0 | 2.0 | 0.00 | 0.00 | 0.00 | 49 | 100.7 |
| 20260505070104 | 50 | 212 | 1.0 | 2.0 | 0.00 | 0.00 | 0.00 | 49 | 100.6 |
| 20260505065104 | 50 | 178 | 1.0 | 2.0 | 0.00 | 0.00 | 0.00 | 50 | 100.6 |
| 20260505064104 | 51 | 161 | 2.0 | 3.0 | 0.00 | 0.00 | 0.00 | 50 | 100.6 |
| 20260505063104 | 51 | 169 | 1.0 | 2.0 | 0.00 | 0.00 | 0.00 | 49 | 100.5 |
| 20260505062104 | 51 | 186 | 1.0 | 2.0 | 0.00 | 0.00 | 0.00 | 49 | 100.6 |
| 20260505061104 | 51 | 173 | 1.0 | 3.0 | 0.00 | 0.00 | 0.00 | 48 | 100.6 |
| 20260505060104 | 51 | 196 | 1.0 | 3.0 | 0.00 | 0.00 | 0.00 | 49 | 100.6 |
| 20260505055104 | 52 | 178 | 1.0 | 2.0 | 0.00 | 0.00 | 0.00 | 49 | 100.6 |
| 20260505054104 | 52 | 160 | 1.0 | 2.0 | 0.00 | 0.00 | 0.00 | 49 | 100.6 |
| 20260505053104 | 52 | 185 | 1.0 | 2.0 | 0.00 | 0.00 | 0.00 | 50 | 100.6 |
| 20260505052104 | 52 | 195 | 2.0 | 4.0 | 0.00 | 0.00 | 0.00 | 50 | 100.6 |
| 20260505051104 | 52 | 204 | 0.0 | 2.0 | 0.00 | 0.00 | 0.00 | 49 | 100.6 |
| 20260505050104 | 53 | 144 | 1.0 | 2.0 | 0.00 | 0.00 | 0.00 | 50 | 100.5 |
| 20260505041104 | 55 | 156 | 1.0 | 2.0 | 0.00 | 0.00 | 0.00 | 49 | 100.5 |
| 20260505040104 | 55 | 176 | 1.0 | 2.0 | 0.00 | 0.00 | 0.00 | 49 | 100.5 |
| 20260505035104 | 56 | 189 | 2.0 | 3.0 | 0.00 | 0.00 | 0.00 | 48 | 100.5 |
| 20260505034104 | 57 | 157 | 1.0 | 2.0 | 0.00 | 0.00 | 0.00 | 47 | 100.4 |
| 20260505033104 | 58 | 193 | 1.0 | 1.0 | 0.00 | 0.00 | 0.00 | 45 | 100.4 |
| 20260505032104 | 58 | 184 | 1.0 | 3.0 | 0.00 | 0.00 | 0.00 | 44 | 100.4 |
| 20260505031104 | 58 | 200 | 1.0 | 2.0 | 0.00 | 0.00 | 0.00 | 44 | 100.4 |
| 20260505030104 | 58 | 144 | 0.0 | 1.0 | 0.00 | 0.00 | 0.00 | 44 | 100.4 |
| 20260505025104 | 58 | 155 | 0.0 | 1.0 | 0.00 | 0.00 | 0.00 | 43 | 100.4 |
| 20260505024104 | 58 | 160 | 1.0 | 1.0 | 0.00 | 0.00 | 0.00 | 43 | 100.4 |
| 20260505023104 | 59 | 145 | 1.0 | 2.0 | 0.00 | 0.00 | 0.00 | 43 | 100.4 |
| 20260505022104 | 59 | 162 | 0.0 | 1.0 | 0.00 | 0.00 | 0.00 | 43 | 100.3 |
| 20260505021104 | 60 | 170 | 1.0 | 2.0 | 0.00 | 0.00 | 0.00 | 43 | 100.3 |
| 20260505020104 | 60 | 191 | 0.0 | 1.0 | 0.00 | 0.00 | 0.00 | 43 | 100.3 |
| 20260505015104 | 60 | 185 | 1.0 | 3.0 | 0.00 | 0.00 | 0.00 | 42 | 100.3 |
| 20260505014104 | 60 | 135 | 0.0 | 1.0 | 0.00 | 0.00 | 0.00 | 43 | 100.2 |
| 20260505013104 | 61 | 174 | 1.0 | 4.0 | 0.00 | 0.00 | 0.00 | 42 | 100.2 |
| 20260505012104 | 61 | 195 | 1.0 | 2.0 | 0.00 | 0.00 | 0.00 | 41 | 100.2 |
| 20260505011104 | 62 | 166 | 1.0 | 2.0 | 0.00 | 0.00 | 0.00 | 40 | 100.2 |
| 20260505010104 | 63 | 153 | 0.0 | 1.0 | 0.00 | 0.00 | 0.00 | 39 | 100.1 |
| 20260505005104 | 64 | 190 | 1.0 | 2.0 | 0.00 | 0.00 | 0.00 | 38 | 100.1 |
| 20260505004104 | 65 | 176 | 1.0 | 3.0 | 0.00 | 0.00 | 0.00 | 38 | 100.1 |
| 20260505003104 | 66 | 188 | 1.0 | 3.0 | 0.00 | 0.00 | 0.00 | 39 | 100.1 |
| 20260505002104 | 67 | 178 | 1.0 | 2.0 | 0.00 | 0.00 | 0.00 | 39 | 100.1 |
| 20260505001104 | 67 | 170 | 2.0 | 3.0 | 0.00 | 0.00 | 0.00 | 38 | 100.1 |
| 20260505000104 | 68 | 149 | 2.0 | 3.0 | 0.00 | 0.00 | 0.00 | 38 | 100.0 |
| 20260504235104 | 70 | 127 | 1.0 | 2.0 | 0.00 | 0.00 | 0.00 | 39 | 100.0 |
| 20260504234104 | 71 | 168 | 2.0 | 3.0 | 0.00 | 0.00 | 0.00 | 38 | 100.0 |
| 20260504233104 | 72 | 129 | 1.0 | 2.0 | 0.00 | 0.00 | 0.00 | 38 | 100.0 |
| 20260504232104 | 72 | 154 | 0.0 | 3.0 | 0.00 | 0.00 | 0.00 | 38 | 100.0 |
| 20260504231104 | 73 | 140 | 1.0 | 3.0 | 0.00 | 0.00 | 0.00 | 37 | 100.0 |
| 20260504230104 | 74 | 137 | 1.0 | 1.0 | 0.00 | 0.00 | 0.00 | 38 | 99.9 |
| 20260504225104 | 74 | 162 | 1.0 | 3.0 | 0.00 | 0.00 | 0.00 | 38 | 99.9 |
| 20260504224104 | 76 | 170 | 2.0 | 4.0 | 0.00 | 0.00 | 0.00 | 37 | 99.9 |
| 20260504223104 | 76 | 146 | 2.0 | 3.0 | 0.00 | 0.00 | 0.00 | 37 | 99.9 |
| 20260504222104 | 77 | 179 | 1.0 | 3.0 | 0.00 | 0.00 | 0.00 | 37 | 99.9 |
| 20260504221104 | 77 | 149 | 2.0 | 3.0 | 0.00 | 0.00 | 0.00 | 38 | 99.8 |
| 20260504220104 | 77 | 139 | 1.0 | 3.0 | 0.00 | 0.00 | 0.00 | 40 | 99.8 |
| 20260504215104 | 78 | 170 | 1.0 | 2.0 | 0.00 | 0.00 | 0.00 | 40 | 99.8 |
| 20260504214104 | 80 | 162 | 2.0 | 3.0 | 0.00 | 0.00 | 0.00 | 40 | 99.8 |
| 20260504213104 | 80 | 117 | 1.0 | 3.0 | 0.00 | 0.00 | 0.00 | 40 | 99.8 |
| 20260504212104 | 79 | 148 | 1.0 | 1.0 | 0.00 | 0.00 | 0.00 | 41 | 99.8 |
| 20260504211104 | 81 | 111 | 1.0 | 2.0 | 0.00 | 0.00 | 0.00 | 39 | 99.8 |
| 20260504210104 | 81 | 86 | 1.0 | 3.0 | 0.00 | 0.00 | 0.00 | 36 | 99.8 |
| 20260504205104 | 81 | 55 | 2.0 | 4.0 | 0.00 | 0.00 | 0.00 | 36 | 99.8 |
| 20260504204104 | 81 | 96 | 1.0 | 2.0 | 0.00 | 0.00 | 0.00 | 36 | 99.8 |
| 20260504203104 | 82 | 86 | 1.0 | 3.0 | 0.00 | 0.00 | 0.00 | 36 | 99.8 |
| 20260504202104 | 82 | 80 | 2.0 | 4.0 | 0.00 | 0.00 | 0.00 | 37 | 99.8 |
| 20260504201104 | 81 | 46 | 2.0 | 3.0 | 0.00 | 0.00 | 0.00 | 37 | 99.8 |
| 20260504200104 | 81 | 62 | 2.0 | 5.0 | 0.00 | 0.00 | 0.00 | 37 | 99.8 |
| 20260504195104 | 81 | 44 | 2.0 | 4.0 | 0.00 | 0.00 | 0.00 | 37 | 99.8 |
| 20260504194104 | 81 | 53 | 2.0 | 4.0 | 0.00 | 0.00 | 0.00 | 37 | 99.8 |
| 20260504193104 | 81 | 96 | 1.0 | 2.0 | 0.00 | 0.00 | 0.00 | 37 | 99.9 |
| 20260504192104 | 80 | 54 | 2.0 | 4.0 | 0.00 | 0.00 | 0.00 | 37 | 99.8 |
| 20260504191104 | 80 | 82 | 1.0 | 2.0 | 0.00 | 0.00 | 0.00 | 39 | 99.8 |
| 20260504190104 | 80 | 51 | 1.0 | 4.0 | 0.00 | 0.00 | 0.00 | 38 | 99.9 |
| 20260504185104 | 80 | 58 | 2.0 | 4.0 | 0.00 | 0.00 | 0.00 | 38 | 99.9 |
| 20260504184104 | 81 | 79 | 1.0 | 3.0 | 0.00 | 0.00 | 0.00 | 38 | 99.9 |
| 20260504183104 | 81 | 53 | 1.0 | 3.0 | 0.00 | 0.00 | 0.00 | 37 | 99.9 |
| 20260504182104 | 80 | 59 | 3.0 | 5.0 | 0.00 | 0.00 | 0.00 | 38 | 99.9 |
| 20260504181104 | 79 | 114 | 1.0 | 3.0 | 0.00 | 0.00 | 0.00 | 40 | 99.9 |
| 20260504180104 | 80 | 65 | 2.0 | 2.0 | 0.00 | 0.00 | 0.00 | 39 | 99.9 |
| 20260504175104 | 79 | 69 | 1.0 | 3.0 | 0.00 | 0.00 | 0.00 | 39 | 99.9 |
| 20260504174104 | 79 | 52 | 2.0 | 3.0 | 0.00 | 0.00 | 0.00 | 39 | 99.9 |
| 20260504173104 | 78 | 47 | 2.0 | 3.0 | 0.00 | 0.00 | 0.00 | 39 | 99.9 |
| 20260504172104 | 78 | 45 | 3.0 | 4.0 | 0.00 | 0.00 | 0.00 | 39 | 99.9 |
| 20260504171104 | 78 | 58 | 2.0 | 3.0 | 0.00 | 0.00 | 0.00 | 39 | 99.9 |
| 20260504170104 | 77 | 36 | 2.0 | 3.0 | 0.00 | 0.00 | 0.00 | 41 | 99.9 |
| 20260504160104 | 73 | 33 | 1.0 | 3.0 | 0.00 | 0.00 | 0.00 | 45 | 100.0 |
| 20260504151104 | 71 | 1 | 1.0 | 2.0 | 0.00 | 0.00 | 0.00 | 44 | 100.0 |
| 20260504150104 | 70 | 3 | 2.0 | 3.0 | 0.00 | 0.00 | 0.00 | 44 | 100.1 |
| 20260504141104 | 66 | 45 | 1.0 | 3.0 | 0.00 | 0.00 | 0.00 | 49 | 100.1 |
| 20260504140104 | 65 | 36 | 1.0 | 2.0 | 0.00 | 0.00 | 0.00 | 53 | 100.1 |
| 20260504130104 | 54 | 34 | 0.0 | 1.0 | 0.00 | 0.00 | 0.00 | 65 | 100.1 |
| 20260504120104 | 44 | 313 | 0.0 | 0.0 | 0.00 | 0.00 | 0.00 | 78 | 100.2 |
| 20260504110104 | 42 | 190 | 0.0 | 0.0 | 0.00 | 0.00 | 0.00 | 81 | 100.2 |
| 20260504100104 | 42 | 282 | 0.0 | 0.0 | 0.00 | 0.00 | 0.00 | 83 | 100.3 |
| 20260504090104 | 42 | 231 | 0.0 | 0.0 | 0.00 | 0.00 | 0.00 | 85 | 100.4 |
| 20260504081104 | 43 | 291 | 0.0 | 0.0 | 0.00 | 0.00 | 0.00 | 85 | 100.4 |